Temperature
10 9 9 9 10 11 11 11 11 12 12 11 10 10 11 11 11 11 11 11 11 11 10 10 10 9 9 9 10 10 10 10 10 10 10 10 10 10 10 10 10 10 10 10
10 9 10 11 11 11 11 10 11 11 11 11 10 10 11 11 11 11 11 11 11 10 10 9 9 9 9 9 9 9 9 9 9 10 10 10 10 10 10 10 10 10 10 10
9 9 10 10 10 10 10 10 10 10 10 10 10 10 10 11 11 11 11 10 10 10 9 9 9 9 8 8 8 8 9 9 9 9 9 9 9 10 9 9 9 9 9 9
9 10 10 10 10 10 9 10 10 9 9 9 10 8 10 10 10 10 10 10 10 9 9 8 8 8 8 8 8 8 8 8 8 8 8 9 9 9 9 9 9 9 9 9
8 9 9 9 9 9 9 10 9 9 9 8 9 8 9 10 9 9 9 9 9 9 8 8 8 8 7 7 8 8 8 8 8 8 8 8 8 8 8 8 8 8 8 8
8 9 9 9 9 9 9 9 9 9 8 7 9 9 9 9 9 9 9 9 8 8 8 8 7 7 7 7 7 7 7 7 7 7 7 7 7 7 7 7 7 8 8 8
8 8 8 8 8 8 8 7 7 7 7 8 10 9 9 9 9 9 8 8 8 8 7 7 7 7 7 7 7 7 6 7 7 7 7 6 6 6 6 6 7 7 7 7
7 7 8 8 7 7 7 7 7 7 8 9 9 9 9 9 9 9 9 8 7 7 7 6 6 6 6 6 6 6 6 6 6 6 6 6 6 6 6 6 6 6 6 6
7 7 8 8 8 8 7 7 8 7 7 7 8 9 8 9 8 8 7 7 7 6 6 6 6 6 6 6 6 5 5 5 5 5 5 5 5 5 5 5 5 5 5 5
7 6 7 7 7 7 7 7 7 7 7 8 9 9 8 7 6 6 6 6 6 6 6 5 5 5 5 5 5 5 5 5 5 5 5 4 5 5 5 5 5 5 5 5
6 5 6 6 6 6 6 7 7 6 7 7 8 8 8 7 6 6 5 6 6 5 5 5 4 4 5 4 4 4 4 4 4 4 4 4 4 4 4 4 4 4 4 4
6 5 5 6 6 6 6 7 6 6 6 7 6 7 7 7 6 6 6 6 5 5 5 4 4 4 4 4 4 4 3 3 3 4 4 4 4 4 4 4 4 4 4 4
5 5 5 6 5 5 5 6 6 5 5 6 6 6 7 6 6 6 6 5 5 4 4 4 3 3 3 3 3 3 3 3 3 3 3 3 3 3 3 3 3 3 3 3
5 4 4 5 6 5 4 5 5 4 4 5 6 6 6 5 5 5 5 5 5 4 4 3 3 3 2 2 3 3 3 3 3 2 2 2 2 2 2 2 2 2 2 2
4 3 4 4 5 5 4 4 4 4 4 5 5 6 6 5 4 5 5 4 4 3 3 3 2 2 2 2 2 2 2 2 2 2 2 2 2 2 2 2 2 2 2 2
3 3 3 3 4 5 4 4 4 4 4 4 5 5 5 5 5 5 4 4 3 3 2 2 2 2 2 2 2 2 2 2 1 1 1 1 1 1 1 1 1 1 1 1
2 2 3 3 4 4 4 4 4 4 4 4 4 4 4 3 3 4 4 4 3 2 2 2 1 1 1 1 1 1 1 1 1 1 1 1 1 0 0 0 0 1 1 1
1 2 2 2 3 3 5 4 4 4 4 4 3 3 3 3 4 4 4 3 3 2 2 2 1 1 1 1 1 1 0 0 0 0 0 0 0 0 0 0 0 0 0 0
2 2 2 2 3 4 5 4 3 3 3 3 3 3 3 3 3 3 3 3 2 2 2 1 1 1 1 0 0 -0 -0 -0 -0 -0 -0 -0 -0 -0 -0 -0 -0 0 -0 0
1 1 1 2 2 3 5 3 3 3 2 3 3 2 2 2 0 1 2 2 2 2 1 1 1 1 0 0 -0 -0 -1 -1 -1 -1 -1 -0 -0 -0 -0 -0 -0 -0 -0 -0
0 0 1 1 2 3 3 2 3 3 3 3 3 2 2 1 1 2 2 1 1 1 1 1 0 0 -0 -0 -1 -1 -1 -1 -1 -1 -1 -1 -1 -1 -1 -1 -1 -1 -1 -1
0 0 0 1 2 2 2 1 1 2 3 3 2 2 2 1 1 1 1 1 0 0 0 0 -0 -0 -0 -1 -1 -1 -1 -1 -1 -1 -1 -1 -1 -1 -1 -1 -1 -1 -1 -1
1 1 1 2 2 2 2 2 2 2 2 2 2 1 1 1 0 0 -0 -0 -0 -0 -0 -1 -1 -1 -1 -1 -1 -1 -2 -2 -2 -2 -1 -1 -1 -1 -1 -1 -1 -2 -2 -2
1 1 1 1 1 2 2 2 2 2 2 2 1 1 1 0 -0 -0 -1 -1 -1 -1 -1 -1 -1 -1 -1 -2 -2 -2 -2 -2 -2 -2 -2 -2 -1 -1 -2 -2 -2 -2 -2 -2
1 -1 -0 -0 0 1 1 2 2 1 1 1 1 1 0 -0 -0 -1 -1 -1 -1 -1 -1 -2 -2 -2 -2 -2 -2 -2 -2 -2 -2 -2 -2 -2 -2 -2 -2 -2 -2 -2 -2 -2
0 -0 -0 1 1 1 1 2 2 1 1 1 0 0 -0 -0 -1 -1 -1 -2 -2 -2 -2 -2 -2 -2 -2 -2 -2 -2 -3 -3 -3 -3 -2 -2 -2 -3 -3 -3 -3 -3 -3 -3
Wind_Speed
4 3 4 5 7 6 6 6 7 5 2 4 8 9 8 6 6 7 6 5 5 4 3 4 4 3 3 3 3 2 3 2 2 1 1 0 0 0 0 1 1 1 1 1
3 6 6 5 6 7 7 7 8 5 3 5 7 10 8 8 9 8 6 4 4 3 3 4 4 4 3 3 3 2 2 2 2 1 1 1 1 1 1 0 0 0 0 1
6 2 3 6 6 6 7 7 6 6 6 6 7 8 7 6 6 6 6 5 4 5 5 5 4 3 3 3 2 1 1 2 2 1 0 0 0 0 0 0 0 0 0 0
5 4 5 6 6 5 6 4 5 6 4 4 4 5 5 5 5 6 5 5 4 3 4 4 4 4 3 3 2 2 1 1 1 1 1 1 1 1 1 1 1 1 1 1
3 2 4 6 5 5 4 4 5 7 6 6 6 5 5 4 6 6 5 4 3 3 4 5 5 4 3 3 2 1 1 1 1 1 1 2 1 1 1 1 1 1 1 1
5 3 3 3 4 4 3 4 6 6 4 6 7 7 5 3 4 4 4 4 3 3 3 4 4 4 3 2 2 1 1 1 1 0 1 1 1 1 1 1 1 1 1 1
4 5 4 3 3 2 2 1 1 2 4 6 3 5 4 0 1 3 4 4 4 3 3 3 3 3 2 2 2 1 1 0 0 0 1 1 1 2 2 2 2 2 2 2
3 3 5 3 3 3 4 4 3 3 3 3 2 5 2 2 3 4 4 4 3 3 2 2 2 3 2 1 1 1 1 1 0 1 2 2 2 2 2 2 2 3 2 2
2 2 2 2 1 3 3 4 2 2 4 4 4 3 2 1 2 3 2 2 2 2 2 1 1 1 1 1 2 2 2 2 1 1 2 3 2 2 2 2 2 2 2 3
2 2 2 1 1 3 3 3 1 2 3 4 5 4 2 1 2 1 1 1 2 2 1 1 0 0 0 1 2 2 2 3 2 2 2 3 2 3 3 2 2 3 3 3
1 2 2 3 5 4 4 3 3 3 3 3 4 2 1 2 3 3 2 1 1 1 1 0 0 1 0 0 0 1 2 2 2 2 3 3 2 3 3 2 3 3 3 3
2 2 3 4 1 0 3 4 4 3 4 3 3 4 2 3 2 3 2 1 0 0 0 1 1 1 0 1 1 1 1 1 2 2 3 3 2 3 3 3 3 3 4 4
1 2 2 2 1 1 3 3 3 2 2 4 4 5 1 3 2 2 1 1 1 1 1 1 2 2 2 1 1 1 1 1 1 2 3 3 3 3 3 3 3 3 4 4
1 3 5 5 3 1 4 5 5 4 4 5 7 7 4 2 2 1 0 1 1 0 1 2 2 3 3 2 2 1 1 1 1 2 3 4 4 3 3 3 3 4 4 4
2 4 5 8 7 4 6 7 7 9 8 7 6 7 7 4 3 2 2 1 1 1 1 2 3 3 3 2 2 2 2 2 2 3 4 4 3 3 3 3 3 4 4 5
2 3 3 6 6 5 8 9 9 10 10 10 9 9 5 3 2 1 1 1 2 2 2 2 3 3 3 3 2 3 3 3 3 3 4 3 3 4 3 3 4 4 4 4
3 3 2 4 3 4 8 8 9 7 7 8 10 8 2 2 3 3 3 1 2 2 3 2 2 3 3 3 2 3 3 3 3 4 4 3 3 4 4 4 4 4 4 4
4 3 3 3 2 6 6 1 4 5 6 6 5 3 2 3 4 3 1 0 2 2 3 3 2 2 3 2 3 3 3 3 4 4 4 4 4 4 4 4 4 4 4 4
3 3 3 2 4 7 4 2 2 3 5 4 5 4 2 2 3 2 1 1 1 2 2 3 2 2 2 2 2 3 3 3 4 4 4 4 4 4 4 4 4 4 3 3
1 1 2 3 3 5 3 1 0 2 4 2 3 4 3 0 2 4 2 2 2 2 2 2 2 2 2 2 2 2 4 4 4 4 5 5 4 4 5 5 4 3 3 3
3 3 5 5 5 6 2 1 2 3 4 1 2 3 2 3 4 3 3 3 2 2 2 2 2 2 2 3 2 3 3 4 4 5 5 5 4 4 4 4 3 3 2 3
6 5 5 4 5 7 2 4 4 3 1 1 1 1 1 2 2 3 3 3 3 3 3 2 2 2 2 2 2 3 4 5 5 5 5 5 4 4 3 3 3 3 2 2
6 5 4 6 6 2 4 3 2 0 0 1 0 1 0 2 3 3 3 3 3 3 2 2 2 3 3 3 2 4 5 5 5 5 5 4 4 3 3 2 3 3 2 2
3 1 3 4 5 3 3 2 2 1 1 1 1 0 0 2 3 3 3 3 3 3 2 2 2 2 4 4 3 4 5 5 4 4 4 4 3 3 3 2 2 2 2 2
3 4 4 5 5 3 3 3 3 1 1 1 1 1 2 2 3 3 3 3 2 2 2 1 2 3 4 4 4 4 4 4 4 4 4 4 3 3 2 2 2 2 2 3
5 6 6 6 4 4 4 2 2 2 2 2 2 2 2 2 3 3 3 2 2 2 2 2 3 4 4 4 4 4 4 4 4 4 4 3 3 3 2 2 3 4 3 4
Wind_Direction
200 215 225 232 232 257 278 277 275 277 271 256 254 259 253 225 230 238 232 215 205 191 160 147 136 126 123 119 114 112 100 94 84 74 111 126 184 160 133 44 84 95 112 125
212 234 249 260 257 255 265 270 274 287 288 281 266 266 251 229 222 224 222 209 201 178 158 145 139 130 120 114 119 127 113 106 89 85 155 190 233 207 188 30 28 241 93 150
228 254 258 251 260 259 259 258 273 281 293 261 266 269 231 219 211 215 217 202 206 195 171 159 147 131 116 106 112 123 109 102 96 60 142 142 9 321 151 246 196 328 340 261
245 252 258 254 258 257 259 271 279 280 278 265 237 280 247 202 211 213 209 198 199 186 167 160 149 127 119 110 93 66 67 95 112 106 168 169 208 234 244 225 225 255 333 308
249 249 257 251 256 259 264 298 280 268 266 274 243 246 271 196 218 216 201 189 179 167 170 157 142 134 123 114 105 86 65 55 88 124 196 192 222 239 249 275 250 239 246 292
252 268 279 269 276 259 261 281 271 252 252 259 228 215 265 215 221 194 179 170 159 154 145 142 132 124 121 116 119 131 121 100 76 62 230 218 232 229 215 273 262 250 248 259
239 224 217 252 266 244 235 221 279 239 224 246 226 212 242 66 68 158 163 154 144 140 133 139 141 142 146 139 147 170 188 193 100 344 275 247 256 234 213 223 255 266 257 267
241 235 191 203 216 224 227 219 221 244 256 275 240 231 223 89 65 81 113 127 123 128 131 149 158 164 164 162 182 203 234 259 297 311 289 254 245 244 227 231 237 252 255 254
267 257 131 185 227 248 232 227 253 272 278 278 246 214 189 108 90 97 105 124 135 139 135 128 120 143 168 211 230 215 220 247 254 275 281 260 244 268 260 244 240 249 256 273
321 273 228 170 233 244 260 277 240 223 249 263 260 232 234 194 198 168 183 196 191 181 146 113 51 345 261 247 254 222 220 240 258 278 279 270 254 263 260 254 246 255 258 261
241 222 234 200 206 208 204 220 228 242 246 246 274 274 17 160 169 175 200 204 168 143 114 161 299 305 300 260 263 248 220 241 258 277 275 263 262 273 267 256 255 256 263 261
220 231 247 229 171 340 238 231 203 216 253 242 256 265 28 70 113 154 180 189 48 28 322 3 354 341 341 253 239 260 239 253 279 283 278 273 279 275 268 270 274 260 258 256
177 207 262 244 236 229 252 253 237 240 266 242 237 251 63 65 65 94 130 166 202 222 290 5 7 0 344 327 310 290 282 282 306 304 284 284 276 263 263 271 278 271 264 260
227 225 228 241 266 220 242 242 228 206 224 245 236 251 269 288 298 318 307 226 234 221 358 358 351 342 330 323 329 320 299 291 305 298 288 278 273 270 274 279 277 275 269 266
222 238 248 267 273 253 251 246 227 224 229 233 251 256 264 268 270 247 221 207 257 317 345 335 329 327 328 325 338 348 335 314 299 283 280 284 294 294 282 278 276 277 275 273
230 245 262 266 252 252 266 255 233 233 238 247 265 272 267 284 318 315 273 230 236 263 281 296 314 326 326 327 341 340 327 323 305 283 284 298 307 299 283 275 270 272 273 274
207 218 249 261 246 288 266 242 223 224 218 219 242 252 274 316 293 276 270 252 244 275 284 287 300 309 313 325 335 322 320 324 314 301 301 303 298 294 291 287 274 270 269 270
205 216 229 271 299 252 243 190 195 218 233 213 236 260 267 271 284 278 256 194 281 299 299 296 297 306 322 333 335 331 331 323 310 308 307 303 293 288 289 284 276 274 272 268
215 209 224 228 255 270 260 215 178 200 254 217 226 251 271 347 324 290 14 16 297 290 300 303 306 314 331 330 335 337 324 316 313 311 305 300 293 289 285 281 279 276 276 278
237 215 221 222 242 251 260 145 349 135 261 233 199 231 252 299 282 268 345 343 316 325 322 315 330 347 341 332 345 333 315 316 311 309 306 301 300 295 286 283 279 283 281 276
193 206 218 227 241 263 272 149 119 176 253 253 178 212 224 222 231 276 338 340 326 324 328 343 350 343 329 329 334 317 309 306 310 312 311 302 297 291 285 288 291 293 287 286
190 191 202 201 227 251 152 136 187 229 2 88 126 171 233 276 292 315 331 332 333 330 327 340 341 329 331 332 331 316 310 317 324 321 315 306 299 295 300 296 298 292 271 270
207 202 200 204 220 260 165 193 229 43 328 338 25 23 18 302 296 303 307 313 313 311 316 329 327 322 324 328 325 310 316 326 326 322 318 318 313 308 303 291 280 280 271 264
230 211 227 252 258 255 228 269 296 309 282 309 352 8 261 264 280 287 285 292 300 308 314 324 327 316 314 319 317 312 319 324 323 318 317 318 323 326 325 319 299 281 271 271
222 189 228 253 267 281 256 239 246 257 292 297 295 271 242 243 269 274 278 276 281 302 313 311 301 299 303 315 319 323 326 326 319 314 314 316 318 315 317 320 314 299 283 276
202 196 204 234 229 217 244 241 223 230 256 258 268 290 276 243 259 271 272 272 275 285 302 311 304 302 304 313 317 322 326 322 316 313 314 313 316 316 319 326 334 339 330 326
Height
1491 1494 1494 1491 1490 1489 1488 1487 1487 1485 1484 1486 1485 1483 1480 1480 1481 1481 1482 1482 1483 1485 1486 1487 1488 1490 1491 1492 1493 1494 1495 1497 1498 1499 1501 1502 1504 1505 1507 1508 1509 1510 1511 1512
1491 1492 1489 1489 1487 1487 1487 1488 1487 1485 1483 1484 1483 1480 1475 1475 1475 1477 1478 1479 1481 1482 1483 1484 1486 1487 1488 1489 1491 1492 1493 1494 1495 1497 1498 1500 1501 1502 1504 1505 1506 1507 1508 1509
1490 1489 1488 1487 1487 1487 1487 1488 1487 1488 1485 1483 1483 1479 1472 1470 1471 1473 1475 1476 1478 1479 1479 1481 1483 1484 1486 1487 1488 1489 1490 1491 1493 1494 1496 1497 1498 1499 1500 1501 1503 1504 1505 1506
1488 1488 1488 1487 1487 1487 1488 1485 1486 1487 1489 1488 1483 1486 1470 1468 1470 1471 1472 1473 1475 1476 1477 1479 1480 1482 1483 1484 1486 1487 1488 1489 1490 1492 1493 1493 1494 1495 1496 1497 1499 1500 1501 1502
1488 1487 1487 1487 1486 1487 1487 1485 1486 1486 1487 1489 1482 1486 1473 1465 1468 1468 1469 1470 1472 1473 1475 1476 1477 1479 1481 1482 1484 1485 1486 1487 1488 1489 1489 1490 1491 1492 1492 1493 1495 1496 1497 1498
1488 1487 1487 1486 1486 1485 1486 1486 1485 1485 1488 1491 1478 1481 1474 1467 1464 1465 1467 1469 1470 1472 1473 1474 1476 1477 1479 1480 1482 1483 1483 1484 1485 1486 1486 1487 1488 1488 1489 1489 1490 1491 1492 1493
1487 1486 1486 1486 1487 1486 1487 1491 1494 1491 1491 1483 1469 1472 1471 1463 1461 1462 1465 1467 1469 1471 1472 1472 1474 1474 1476 1478 1479 1480 1480 1481 1481 1482 1482 1483 1484 1485 1485 1485 1486 1487 1487 1488
1487 1486 1484 1484 1486 1488 1487 1489 1493 1492 1485 1476 1471 1471 1467 1462 1461 1462 1464 1466 1468 1469 1470 1471 1472 1473 1474 1475 1476 1477 1477 1477 1477 1478 1479 1479 1480 1481 1481 1481 1482 1482 1483 1483
1486 1485 1483 1483 1484 1485 1485 1486 1484 1488 1485 1484 1472 1464 1464 1462 1462 1463 1464 1466 1467 1468 1469 1469 1470 1471 1471 1472 1473 1474 1473 1474 1474 1475 1475 1475 1476 1476 1477 1477 1478 1478 1479 1479
1487 1490 1485 1484 1485 1485 1486 1484 1487 1488 1487 1481 1466 1461 1466 1466 1465 1464 1465 1465 1466 1467 1467 1468 1468 1468 1469 1469 1470 1470 1470 1470 1470 1470 1471 1471 1471 1472 1472 1472 1473 1473 1474 1474
1487 1491 1488 1485 1486 1484 1485 1485 1484 1484 1482 1482 1476 1470 1462 1463 1463 1464 1465 1465 1466 1466 1466 1466 1467 1466 1466 1466 1466 1466 1467 1467 1466 1466 1467 1467 1467 1467 1467 1467 1468 1468 1469 1469
1486 1488 1488 1483 1480 1480 1481 1480 1483 1487 1483 1479 1479 1475 1461 1461 1462 1463 1464 1464 1465 1465 1465 1465 1465 1464 1464 1464 1464 1463 1463 1463 1463 1463 1463 1462 1462 1462 1462 1462 1463 1463 1463 1463
1486 1489 1489 1483 1485 1484 1483 1480 1480 1483 1483 1480 1479 1473 1462 1462 1462 1462 1463 1463 1464 1464 1464 1464 1463 1462 1461 1461 1460 1460 1459 1459 1459 1459 1458 1458 1458 1457 1457 1457 1457 1458 1458 1458
1485 1488 1488 1482 1477 1481 1483 1481 1480 1483 1484 1478 1472 1467 1463 1463 1462 1462 1462 1463 1463 1463 1462 1461 1460 1459 1458 1458 1457 1456 1456 1456 1455 1455 1454 1454 1453 1453 1452 1453 1453 1453 1454 1454
1485 1486 1483 1479 1476 1476 1477 1477 1478 1479 1476 1475 1467 1464 1462 1462 1462 1461 1461 1461 1461 1461 1460 1459 1458 1457 1456 1455 1454 1453 1453 1452 1452 1451 1450 1449 1448 1448 1448 1448 1448 1449 1449 1449
1484 1484 1482 1479 1474 1473 1473 1471 1472 1472 1472 1469 1466 1464 1460 1459 1459 1459 1460 1460 1459 1459 1458 1457 1456 1455 1453 1452 1451 1450 1449 1449 1448 1447 1446 1445 1444 1444 1444 1444 1444 1444 1444 1444
1484 1485 1483 1478 1474 1473 1471 1464 1465 1465 1463 1464 1464 1461 1458 1458 1458 1458 1458 1458 1457 1457 1456 1455 1453 1452 1451 1450 1448 1447 1446 1445 1444 1443 1442 1441 1441 1441 1440 1440 1440 1440 1439 1439
1482 1483 1483 1480 1477 1477 1461 1457 1457 1458 1457 1458 1458 1457 1457 1457 1456 1456 1456 1456 1455 1455 1454 1452 1451 1450 1449 1447 1446 1445 1443 1442 1441 1440 1439 1439 1438 1437 1437 1436 1436 1435 1435 1435
1478 1480 1480 1480 1477 1466 1457 1456 1457 1460 1457 1455 1456 1456 1456 1456 1455 1454 1454 1454 1453 1453 1451 1450 1449 1448 1446 1445 1444 1442 1441 1439 1438 1437 1437 1436 1435 1434 1434 1433 1432 1431 1431 1430
1477 1478 1480 1477 1475 1468 1456 1456 1454 1457 1458 1453 1453 1454 1454 1455 1458 1455 1452 1452 1451 1450 1449 1448 1446 1445 1444 1443 1442 1440 1438 1437 1435 1435 1434 1433 1432 1431 1430 1429 1428 1428 1427 1426
1480 1480 1480 1477 1474 1462 1456 1455 1455 1460 1455 1451 1451 1451 1452 1453 1454 1452 1451 1450 1449 1448 1447 1445 1444 1443 1442 1441 1439 1438 1436 1435 1433 1432 1431 1430 1428 1428 1427 1426 1425 1424 1423 1422
1473 1475 1475 1473 1472 1464 1455 1456 1457 1454 1450 1450 1450 1450 1450 1450 1450 1449 1448 1447 1446 1445 1444 1443 1441 1440 1440 1439 1437 1435 1434 1432 1431 1429 1428 1427 1425 1424 1423 1422 1421 1420 1419 1418
1465 1464 1463 1463 1460 1454 1452 1451 1451 1450 1450 1449 1449 1449 1449 1448 1448 1447 1446 1445 1444 1443 1442 1441 1440 1438 1437 1436 1435 1433 1431 1430 1428 1427 1425 1424 1423 1421 1420 1419 1418 1417 1416 1415
1459 1459 1459 1457 1452 1450 1450 1449 1449 1449 1449 1448 1448 1447 1447 1446 1445 1445 1444 1443 1442 1441 1440 1439 1438 1436 1435 1434 1433 1431 1429 1428 1426 1424 1423 1421 1420 1419 1418 1416 1416 1415 1413 1413
1455 1457 1457 1455 1451 1449 1447 1447 1447 1447 1447 1446 1446 1445 1445 1444 1443 1442 1441 1441 1440 1439 1438 1437 1436 1434 1433 1431 1430 1429 1427 1425 1423 1422 1420 1419 1418 1416 1415 1414 1413 1412 1412 1411
1450 1452 1453 1449 1445 1446 1444 1444 1444 1444 1444 1444 1443 1443 1442 1442 1441 1440 1439 1439 1438 1437 1436 1434 1433 1432 1431 1429 1427 1426 1425 1423 1421 1419 1418 1417 1415 1414 1413 1411 1410 1410 1409 1409